SCP
0 0 0 0 0 0 0 0 0 0 0 0 0 0 0 0 0 0 0 0 0 0 0 0 0 0 0 0 0 0 0 0 0 0 0 0 0 0 0 0 0 0 0 0
0 0 0 0 0 0 0 0 0 0 0 0 0 0 0 0 0 -0 0 0 0 0 0 0 0 0 0 0 0 0 0 0 0 0 0 0 0 0 0 0 0 0 0 0
0 0 0 0 0 0 0 0 0 0 0 0 0 0 0 0 0 -0 -0 0 0 0 0 0 0 0 0 0 0 0 0 0 0 0 0 0 0 0 0 0 0 0 0 0
0 -0 0 0 0 0 0 0 0 0 0 0 0 0 0 0 0 -0 -0 -0 0 0 0 0 0 0 0 0 0 0 0 0 0 0 0 0 0 0 0 0 0 0 0 0
-0 0 0 0 0 0 -0 -0 -0 -0 0 0 0 0 0 0 0 -0 -0 0 0 0 0 0 0 0 0 0 0 0 0 0 0 0 0 0 0 0 0 0 0 0 0 0
0 0 0 0 0 0 -0 -0 0 -0 -0 0 0 -0 0 0 0 -0 -0 -0 0 0 0 0 0 0 0 0 0 0 0 0 0 0 0 0 0 0 0 0 0 0 0 0
0 0 0 0 0 0 -0 0 0 0 -0 0 0 -0 0 0 0 -0 0 0 0 0 0 0 0 0 0 0 0 0 0 0 0 0 0 0 0 0 0 0 0 0 0 0
0 0 0 0 0 -0 -0 -0 0 0 0 0 0 -0 0 0 0 -0 0 -0 -0 0 0 0 0 0 0 0 0 0 0 0 0 0 0 0 0 0 0 0 0 0 0 0
0 0 0 0 -0 0 -0 0 0 0 0 0 0 0 0 0 0 0 -0 -0 -0 0 0 0 0 0 0 0 0 0 0 0 0 0 0 0 0 0 0 0 0 0 0 0
0 -0 -0 -0 0 0 0 0 -0 -0 -0 0 0 0 0 0 0 -0 0 -0 0 0 0 0 0 0 0 0 0 0 0 0 0 0 0 0 0 0 0 0 0 0 0 0
0 0 0 0 0 0 -0 -0 0 0 -0 0 0 0 0 0 0 0 0 0 0 0 0 0 0 0 0 0 0 0 0 0 0 0 0 0 0 0 0 0 0 0 0 0
0 -0 -0 -0 0 -0 0 0 0 0 0 0 0 0 0 0 0 0 0 0 0 0 0 0 0 0 0 0 0 0 0 0 0 0 0 0 0 0 0 0 0 0 0 0
-0 -0 -0 -0 0 0 0 0 0 0 0 0 0 0 0 0 0 0 0 0 0 0 0 0 0 0 0 0 0 0 0 0 0 0 0 0 0 0 0 0 0 0 0 0
-0 0 -0 -0 0 0 0 0 0 0 0 0 0 0 0 0 0 0 0 0 0 0 0 0 0 0 0 0 0 0 0 0 0 0 0 0 0 0 0 0 0 0 0 0
-0 -0 -0 -0 -0 0 0 0 0 0 0 0 0 0 0 0 0 0 0 0 0 0 0 0 0 0 0 0 0 0 0 0 0 0 0 0 0 0 0 0 0 0 0 0
-0 -0 -0 -0 0 0 0 0 0 0 0 0 0 0 0 0 0 0 0 0 0 0 0 0 0 0 0 0 0 0 0 0 0 0 0 0 0 0 0 0 0 0 0 0
-0 0 0 0 0 -0 0 0 0 0 0 0 0 0 0 0 0 0 0 0 0 0 0 0 0 0 0 0 0 0 0 0 0 0 0 0 0 0 0 0 0 0 0 0
0 0 0 0 0 0 0 0 0 0 0 0 0 0 0 0 0 0 0 0 0 0 0 0 0 0 0 0 0 0 0 0 0 0 0 0 0 0 0 0 0 0 0 0
-0 0 0 0 0 0 0 0 0 0 0 0 0 0 0 0 0 0 0 0 0 0 0 0 0 0 0 0 0 0 0 0 0 0 0 -0 0 0 0 0 0 0 0 0
0 0 0 0 0 0 0 0 0 0 0 0 0 0 0 0 0 0 0 0 0 0 0 0 0 0 0 0 0 0 0 0 0 0 0 0 0 0 0 0 0 0 0 0
0 0 0 0 0 0 0 0 0 0 0 0 0 0 0 0 0 0 0 0 0 0 0 0 0 0 0 0 0 0 0 0 0 0 0 0 0 0 0 0 0 0 0 0
0 0 0 0 0 0 0 0 0 0 0 0 0 0 0 0 0 0 0 0 0 0 0 0 0 0 0 0 0 0 0 0 0 0 0 0 0 0 0 0 0 0 0 0
0 0 0 0 0 0 0 0 0 0 0 0 0 0 0 0 0 0 0 0 0 0 0 0 0 0 0 0 0 0 0 0 0 0 0 0 0 0 0 0 0 0 0 0
0 0 0 0 0 0 0 0 0 0 0 0 0 0 0 0 0 0 0 0 0 0 0 0 0 0 0 0 0 0 0 0 0 0 0 0 0 0 0 0 0 0 0 0
0 0 0 0 0 0 0 0 0 0 0 0 0 0 0 0 0 0 0 0 0 0 0 0 0 0 0 0 0 0 0 0 0 0 0 0 0 0 0 0 0 0 0 0
0 0 0 0 0 0 0 0 0 0 0 0 0 0 0 0 0 0 0 0 0 0 0 0 0 0 0 0 0 0 0 0 0 0 0 0 0 0 0 0 0 0 0 0
0 0 0 0 0 0 0 0 0 0 0 0 0 0 0 0 0 0 0 0 0 0 0 0 0 0 0 0 0 0 0 0 0 0 0 0 0 0 0 0 0 0 0 0
Wind_Speed_500mb
36 36 32 27 20 9 21 15 3 12 44 12 9 6 10 8 22 9 7 5 7 4 16 9 17 24 20 43 27 19 9 9 4 4 11 5 5 10 11 11 7 4 8 7
33 31 22 17 1 23 28 10 12 8 52 8 9 7 7 10 8 4 6 8 7 9 8 7 11 13 11 29 19 18 13 1 6 12 12 4 13 8 9 12 8 6 11 8
24 21 16 7 6 17 22 5 2 2 34 23 4 18 12 14 17 15 13 16 22 15 7 16 11 6 1 37 24 41 29 7 13 12 14 8 8 7 10 11 8 12 7 16
13 12 9 2 13 26 23 11 9 11 5 15 6 10 13 17 13 25 23 9 11 1 11 19 9 4 6 13 29 12 12 10 6 5 7 11 7 10 6 7 9 7 18 18
16 9 5 5 19 29 24 6 9 10 11 23 23 15 13 11 20 12 9 17 12 13 12 13 20 3 7 12 4 9 5 4 8 12 10 18 17 15 22 15 10 17 21 10
21 15 14 9 23 33 15 8 16 11 14 10 18 29 13 29 14 28 52 29 25 29 36 51 64 49 19 25 18 9 10 13 7 8 8 10 10 7 5 7 6 11 13 11
23 22 15 9 20 42 27 12 17 15 6 10 16 21 21 29 35 7 24 22 10 21 52 8 7 16 36 39 19 8 14 11 6 8 1 7 4 9 9 21 9 11 15 18
24 25 18 10 17 46 41 34 22 12 7 13 20 34 27 28 29 13 29 57 46 54 31 8 7 12 15 15 16 16 11 12 9 10 6 4 7 7 10 7 7 3 10 11
24 26 21 15 31 41 37 38 34 18 9 8 2 10 4 7 10 5 28 39 64 38 3 4 5 4 9 7 8 10 18 17 10 6 11 12 7 8 14 8 3 23 19 14
20 25 21 25 42 34 30 27 15 12 9 11 5 5 7 7 2 6 12 18 12 10 5 3 6 2 4 8 10 2 9 9 9 6 7 6 7 15 14 7 10 31 26 18
15 19 24 28 33 29 27 25 13 12 10 19 5 6 6 7 5 7 10 8 7 8 5 6 6 5 1 9 5 7 8 11 4 6 8 6 19 10 13 12 40 36 28 24
13 28 33 30 27 15 30 21 37 38 14 8 7 4 10 10 28 15 13 8 2 11 7 6 7 5 5 5 6 5 3 8 12 6 8 1 12 2 16 41 46 35 36 31
14 38 34 26 17 15 21 25 38 18 10 8 8 9 13 19 21 20 7 8 6 4 7 9 4 11 5 6 3 8 5 3 9 8 4 6 26 38 32 34 39 40 38 37
15 26 33 29 16 17 14 15 28 22 8 3 3 10 12 13 13 14 4 6 9 7 7 9 6 8 2 4 7 7 7 11 12 10 5 18 20 30 42 44 43 42 37 32
18 28 23 32 27 24 18 16 16 33 16 6 11 5 11 11 13 18 14 11 15 8 7 9 4 6 7 3 4 4 13 13 9 9 41 13 43 52 52 48 41 33 31 29
30 31 29 18 22 23 24 10 6 33 29 9 6 7 4 10 9 12 18 13 20 11 9 4 5 5 6 6 3 3 15 22 15 14 64 25 59 58 48 43 36 29 28 25
46 32 23 16 19 24 20 9 21 32 20 5 9 11 7 7 1 9 17 16 9 9 6 5 4 6 6 5 5 16 26 25 16 57 54 57 66 64 49 39 39 39 34 29
44 28 14 3 16 23 25 19 21 28 12 6 3 6 4 1 1 4 5 7 9 14 6 3 4 6 5 2 6 29 33 29 50 61 44 65 71 57 51 49 46 41 35 32
41 27 13 9 8 12 15 13 22 22 10 7 3 2 5 1 5 6 4 5 6 6 4 3 4 0 6 11 23 47 52 46 71 54 36 68 63 59 59 53 47 41 38 33
40 24 5 6 7 11 17 10 6 6 6 7 5 5 4 3 3 8 4 5 3 1 6 2 3 7 10 12 28 46 48 44 69 64 63 65 66 66 61 54 45 38 38 34
36 15 9 3 7 9 7 5 4 4 6 11 10 17 2 3 3 5 2 3 2 3 8 6 4 6 9 17 39 42 39 58 63 53 67 66 65 63 55 50 44 38 35 31
33 20 19 13 3 2 1 6 6 6 9 10 12 17 16 4 2 9 7 2 3 8 1 4 5 8 24 46 44 48 50 62 51 49 55 55 52 47 47 48 43 33 27 27
36 12 12 11 8 7 10 11 7 6 8 11 13 5 18 8 4 8 3 4 5 1 3 7 8 7 42 57 58 47 58 57 52 52 49 53 50 44 40 42 37 30 29 28
10 12 10 8 9 10 10 9 7 13 9 18 24 9 7 8 6 4 4 7 1 5 5 9 5 32 53 61 67 58 67 60 54 52 53 53 45 42 40 35 32 31 29 29
8 7 8 13 16 17 10 21 28 20 14 15 14 6 5 3 7 3 2 4 8 9 8 7 14 43 65 67 68 67 71 63 58 52 53 50 50 48 41 33 26 23 27 31
5 10 9 14 7 12 27 31 32 21 23 4 3 6 5 4 7 7 12 5 7 7 7 8 21 55 69 73 72 69 73 66 56 53 55 56 53 44 38 32 27 27 28 24
7 12 21 30 30 22 28 14 24 22 14 4 5 7 10 6 5 5 8 8 6 10 18 14 31 66 76 76 69 74 70 62 57 58 59 52 43 38 36 35 36 32 23 18
Wind_Direction_500mb
323 322 321 314 299 192 201 183 217 218 171 149 179 199 193 228 276 8 312 277 239 295 353 301 177 199 198 183 141 152 195 142 161 262 299 251 142 142 129 123 207 70 121 231
327 333 333 336 301 194 182 175 216 240 180 179 201 245 231 255 311 97 337 308 22 35 337 329 232 201 212 167 146 156 183 171 71 0 349 18 76 82 96 103 94 175 134 226
329 334 337 354 183 194 191 142 278 251 207 243 191 181 204 222 245 254 257 267 293 300 290 201 278 247 313 176 174 174 138 126 146 174 200 152 107 102 115 103 112 164 192 148
304 295 343 278 188 180 175 188 226 167 217 248 245 310 201 200 223 217 273 294 210 313 311 322 222 262 127 52 136 98 114 144 112 59 110 95 81 59 124 114 137 133 171 142
270 254 244 240 195 176 187 200 253 191 267 201 198 229 255 205 216 266 210 237 295 311 218 254 297 259 192 164 60 107 44 120 123 48 49 96 83 48 72 46 103 75 116 102
246 227 208 213 204 183 199 241 293 309 229 196 187 218 226 210 221 222 232 252 281 289 285 277 257 250 278 155 140 124 103 133 94 146 160 129 54 354 50 97 36 128 151 164
228 228 208 229 201 198 197 234 322 266 229 216 209 200 222 212 236 256 329 255 204 256 317 291 120 120 84 70 45 106 126 101 84 133 73 169 274 3 123 105 44 82 94 142
215 213 231 206 198 205 217 243 292 302 290 257 192 211 211 225 260 239 258 259 265 294 284 304 4 347 42 24 51 33 78 110 79 123 73 87 300 201 166 159 195 179 127 128
202 201 215 199 184 193 217 238 286 267 300 313 265 180 179 182 194 171 251 266 282 275 171 92 135 148 146 51 42 25 66 68 104 117 122 187 207 165 148 143 240 176 159 161
198 191 201 193 194 198 219 274 321 299 254 282 343 199 173 173 213 109 341 284 238 191 97 111 183 147 200 106 105 94 41 29 107 99 116 285 176 159 145 151 224 155 159 159
189 169 175 168 193 212 253 287 327 8 294 284 329 72 106 152 135 126 257 244 226 32 30 148 207 129 113 83 102 105 137 126 139 112 91 221 161 130 174 160 140 149 146 137
166 165 158 160 182 205 241 297 339 332 229 278 335 92 75 65 68 207 232 289 167 157 133 200 150 122 69 142 124 54 92 173 152 127 194 233 174 208 161 150 147 150 145 145
158 177 178 164 170 232 251 304 345 344 333 315 36 48 59 73 63 47 328 290 237 163 153 150 151 91 126 114 172 106 43 100 86 120 331 91 133 136 145 147 143 143 141 136
180 191 204 196 199 228 268 319 6 13 317 353 309 31 83 53 56 41 28 260 64 84 63 91 117 106 95 148 149 129 183 122 126 86 78 115 161 161 151 143 142 142 140 138
191 181 177 193 208 227 226 326 335 8 5 291 297 1 59 66 30 16 34 36 44 36 55 48 75 116 103 29 98 153 187 157 159 202 178 151 172 161 157 153 153 152 150 152
181 159 168 198 212 226 229 293 306 349 347 293 326 342 36 43 55 31 51 28 36 46 59 87 100 107 91 99 179 259 164 169 152 162 164 161 155 158 161 156 151 146 142 140
170 151 134 165 183 197 229 298 328 341 338 290 311 344 14 14 53 59 46 39 44 48 95 72 92 79 84 96 179 186 171 161 140 147 141 137 156 160 160 153 141 134 128 125
170 160 125 75 194 199 236 282 310 331 315 323 10 276 334 334 259 87 47 29 30 32 41 72 87 95 73 220 224 162 158 150 149 152 157 165 158 153 153 149 149 147 141 142
173 177 207 309 209 203 220 287 292 303 290 317 354 220 250 7 82 87 92 44 36 353 47 302 110 17 203 223 186 172 166 158 159 161 157 156 158 160 159 161 161 160 161 162
188 190 201 256 221 212 223 292 277 260 244 235 232 240 284 38 43 50 43 40 179 63 254 307 93 244 229 279 205 181 169 163 159 144 146 156 160 166 168 171 172 174 173 170
171 183 216 267 170 174 226 286 274 287 273 217 230 207 220 161 99 135 41 185 190 121 260 130 244 265 219 181 175 174 172 173 172 171 164 164 162 167 173 180 184 182 182 181
175 180 182 166 207 235 177 244 284 215 231 212 183 207 196 146 149 96 302 208 43 244 160 158 244 245 173 167 170 166 174 173 165 163 163 167 166 170 178 183 183 183 182 189
181 187 168 178 176 190 206 209 241 244 218 210 181 161 168 139 136 73 106 86 268 61 260 224 230 179 162 164 166 165 171 167 166 168 171 173 177 183 186 182 181 179 184 188
142 193 184 203 182 229 207 193 212 223 233 196 187 164 129 129 91 140 125 221 63 286 248 233 232 185 172 172 169 168 171 175 176 176 179 181 183 176 175 177 176 177 183 179
176 201 214 221 232 246 260 246 263 259 330 161 144 83 101 70 110 153 41 310 238 210 230 238 203 179 171 172 169 173 173 177 180 181 180 184 179 170 168 171 171 168 171 169
197 224 248 234 252 253 247 248 258 269 252 207 204 117 105 204 133 170 218 175 219 249 231 246 179 174 174 174 178 179 178 182 182 186 184 175 171 173 173 165 158 160 167 172
226 239 244 262 281 259 271 255 246 236 192 200 151 153 189 116 129 220 191 209 232 289 303 293 198 182 176 176 176 176 180 183 188 182 171 170 169 172 173 167 162 164 163 162
Wind_Speed_850mb
36 36 32 27 20 9 21 15 3 12 44 12 9 6 10 8 22 9 7 5 7 4 16 9 17 24 20 43 27 19 9 9 4 4 11 5 5 10 11 11 7 4 8 7
33 31 22 17 1 23 28 10 12 8 52 8 9 7 7 10 8 4 6 8 7 9 8 7 11 13 11 29 19 18 13 1 6 12 12 4 13 8 9 12 8 6 11 8
24 21 16 7 6 17 22 5 2 2 34 23 4 18 12 14 17 15 13 16 22 15 7 16 11 6 1 37 24 41 29 7 13 12 14 8 8 7 10 11 8 12 7 16
13 12 9 2 13 26 23 11 9 11 5 15 6 10 13 17 13 25 23 9 11 1 11 19 9 4 6 13 29 12 12 10 6 5 7 11 7 10 6 7 9 7 18 18
16 9 5 5 19 29 24 6 9 10 11 23 23 15 13 11 20 12 9 17 12 13 12 13 20 3 7 12 4 9 5 4 8 12 10 18 17 15 22 15 10 17 21 10
21 15 14 9 23 33 15 8 16 11 14 10 18 29 13 29 14 28 52 29 25 29 36 51 64 49 19 25 18 9 10 13 7 8 8 10 10 7 5 7 6 11 13 11
23 22 15 9 20 42 27 12 17 15 6 10 16 21 21 29 35 7 24 22 10 21 52 8 7 16 36 39 19 8 14 11 6 8 1 7 4 9 9 21 9 11 15 18
24 25 18 10 17 46 41 34 22 12 7 13 20 34 27 28 29 13 29 57 46 54 31 8 7 12 15 15 16 16 11 12 9 10 6 4 7 7 10 7 7 3 10 11
24 26 21 15 31 41 37 38 34 18 9 8 2 10 4 7 10 5 28 39 64 38 3 4 5 4 9 7 8 10 18 17 10 6 11 12 7 8 14 8 3 23 19 14
20 25 21 25 42 34 30 27 15 12 9 11 5 5 7 7 2 6 12 18 12 10 5 3 6 2 4 8 10 2 9 9 9 6 7 6 7 15 14 7 10 31 26 18
15 19 24 28 33 29 27 25 13 12 10 19 5 6 6 7 5 7 10 8 7 8 5 6 6 5 1 9 5 7 8 11 4 6 8 6 19 10 13 12 40 36 28 24
13 28 33 30 27 15 30 21 37 38 14 8 7 4 10 10 28 15 13 8 2 11 7 6 7 5 5 5 6 5 3 8 12 6 8 1 12 2 16 41 46 35 36 31
14 38 34 26 17 15 21 25 38 18 10 8 8 9 13 19 21 20 7 8 6 4 7 9 4 11 5 6 3 8 5 3 9 8 4 6 26 38 32 34 39 40 38 37
15 26 33 29 16 17 14 15 28 22 8 3 3 10 12 13 13 14 4 6 9 7 7 9 6 8 2 4 7 7 7 11 12 10 5 18 20 30 42 44 43 42 37 32
18 28 23 32 27 24 18 16 16 33 16 6 11 5 11 11 13 18 14 11 15 8 7 9 4 6 7 3 4 4 13 13 9 9 41 13 43 52 52 48 41 33 31 29
30 31 29 18 22 23 24 10 6 33 29 9 6 7 4 10 9 12 18 13 20 11 9 4 5 5 6 6 3 3 15 22 15 14 64 25 59 58 48 43 36 29 28 25
46 32 23 16 19 24 20 9 21 32 20 5 9 11 7 7 1 9 17 16 9 9 6 5 4 6 6 5 5 16 26 25 16 57 54 57 66 64 49 39 39 39 34 29
44 28 14 3 16 23 25 19 21 28 12 6 3 6 4 1 1 4 5 7 9 14 6 3 4 6 5 2 6 29 33 29 50 61 44 65 71 57 51 49 46 41 35 32
41 27 13 9 8 12 15 13 22 22 10 7 3 2 5 1 5 6 4 5 6 6 4 3 4 0 6 11 23 47 52 46 71 54 36 68 63 59 59 53 47 41 38 33
40 24 5 6 7 11 17 10 6 6 6 7 5 5 4 3 3 8 4 5 3 1 6 2 3 7 10 12 28 46 48 44 69 64 63 65 66 66 61 54 45 38 38 34
36 15 9 3 7 9 7 5 4 4 6 11 10 17 2 3 3 5 2 3 2 3 8 6 4 6 9 17 39 42 39 58 63 53 67 66 65 63 55 50 44 38 35 31
33 20 19 13 3 2 1 6 6 6 9 10 12 17 16 4 2 9 7 2 3 8 1 4 5 8 24 46 44 48 50 62 51 49 55 55 52 47 47 48 43 33 27 27
36 12 12 11 8 7 10 11 7 6 8 11 13 5 18 8 4 8 3 4 5 1 3 7 8 7 42 57 58 47 58 57 52 52 49 53 50 44 40 42 37 30 29 28
10 12 10 8 9 10 10 9 7 13 9 18 24 9 7 8 6 4 4 7 1 5 5 9 5 32 53 61 67 58 67 60 54 52 53 53 45 42 40 35 32 31 29 29
8 7 8 13 16 17 10 21 28 20 14 15 14 6 5 3 7 3 2 4 8 9 8 7 14 43 65 67 68 67 71 63 58 52 53 50 50 48 41 33 26 23 27 31
5 10 9 14 7 12 27 31 32 21 23 4 3 6 5 4 7 7 12 5 7 7 7 8 21 55 69 73 72 69 73 66 56 53 55 56 53 44 38 32 27 27 28 24
7 12 21 30 30 22 28 14 24 22 14 4 5 7 10 6 5 5 8 8 6 10 18 14 31 66 76 76 69 74 70 62 57 58 59 52 43 38 36 35 36 32 23 18
Wind_Direction_850mb
323 322 321 314 299 192 201 183 217 218 171 149 179 199 193 228 276 8 312 277 239 295 353 301 177 199 198 183 141 152 195 142 161 262 299 251 142 142 129 123 207 70 121 231
327 333 333 336 301 194 182 175 216 240 180 179 201 245 231 255 311 97 337 308 22 35 337 329 232 201 212 167 146 156 183 171 71 0 349 18 76 82 96 103 94 175 134 226
329 334 337 354 183 194 191 142 278 251 207 243 191 181 204 222 245 254 257 267 293 300 290 201 278 247 313 176 174 174 138 126 146 174 200 152 107 102 115 103 112 164 192 148
304 295 343 278 188 180 175 188 226 167 217 248 245 310 201 200 223 217 273 294 210 313 311 322 222 262 127 52 136 98 114 144 112 59 110 95 81 59 124 114 137 133 171 142
270 254 244 240 195 176 187 200 253 191 267 201 198 229 255 205 216 266 210 237 295 311 218 254 297 259 192 164 60 107 44 120 123 48 49 96 83 48 72 46 103 75 116 102
246 227 208 213 204 183 199 241 293 309 229 196 187 218 226 210 221 222 232 252 281 289 285 277 257 250 278 155 140 124 103 133 94 146 160 129 54 354 50 97 36 128 151 164
228 228 208 229 201 198 197 234 322 266 229 216 209 200 222 212 236 256 329 255 204 256 317 291 120 120 84 70 45 106 126 101 84 133 73 169 274 3 123 105 44 82 94 142
215 213 231 206 198 205 217 243 292 302 290 257 192 211 211 225 260 239 258 259 265 294 284 304 4 347 42 24 51 33 78 110 79 123 73 87 300 201 166 159 195 179 127 128
202 201 215 199 184 193 217 238 286 267 300 313 265 180 179 182 194 171 251 266 282 275 171 92 135 148 146 51 42 25 66 68 104 117 122 187 207 165 148 143 240 176 159 161
198 191 201 193 194 198 219 274 321 299 254 282 343 199 173 173 213 109 341 284 238 191 97 111 183 147 200 106 105 94 41 29 107 99 116 285 176 159 145 151 224 155 159 159
189 169 175 168 193 212 253 287 327 8 294 284 329 72 106 152 135 126 257 244 226 32 30 148 207 129 113 83 102 105 137 126 139 112 91 221 161 130 174 160 140 149 146 137
166 165 158 160 182 205 241 297 339 332 229 278 335 92 75 65 68 207 232 289 167 157 133 200 150 122 69 142 124 54 92 173 152 127 194 233 174 208 161 150 147 150 145 145
158 177 178 164 170 232 251 304 345 344 333 315 36 48 59 73 63 47 328 290 237 163 153 150 151 91 126 114 172 106 43 100 86 120 331 91 133 136 145 147 143 143 141 136
180 191 204 196 199 228 268 319 6 13 317 353 309 31 83 53 56 41 28 260 64 84 63 91 117 106 95 148 149 129 183 122 126 86 78 115 161 161 151 143 142 142 140 138
191 181 177 193 208 227 226 326 335 8 5 291 297 1 59 66 30 16 34 36 44 36 55 48 75 116 103 29 98 153 187 157 159 202 178 151 172 161 157 153 153 152 150 152
181 159 168 198 212 226 229 293 306 349 347 293 326 342 36 43 55 31 51 28 36 46 59 87 100 107 91 99 179 259 164 169 152 162 164 161 155 158 161 156 151 146 142 140
170 151 134 165 183 197 229 298 328 341 338 290 311 344 14 14 53 59 46 39 44 48 95 72 92 79 84 96 179 186 171 161 140 147 141 137 156 160 160 153 141 134 128 125
170 160 125 75 194 199 236 282 310 331 315 323 10 276 334 334 259 87 47 29 30 32 41 72 87 95 73 220 224 162 158 150 149 152 157 165 158 153 153 149 149 147 141 142
173 177 207 309 209 203 220 287 292 303 290 317 354 220 250 7 82 87 92 44 36 353 47 302 110 17 203 223 186 172 166 158 159 161 157 156 158 160 159 161 161 160 161 162
188 190 201 256 221 212 223 292 277 260 244 235 232 240 284 38 43 50 43 40 179 63 254 307 93 244 229 279 205 181 169 163 159 144 146 156 160 166 168 171 172 174 173 170
171 183 216 267 170 174 226 286 274 287 273 217 230 207 220 161 99 135 41 185 190 121 260 130 244 265 219 181 175 174 172 173 172 171 164 164 162 167 173 180 184 182 182 181
175 180 182 166 207 235 177 244 284 215 231 212 183 207 196 146 149 96 302 208 43 244 160 158 244 245 173 167 170 166 174 173 165 163 163 167 166 170 178 183 183 183 182 189
181 187 168 178 176 190 206 209 241 244 218 210 181 161 168 139 136 73 106 86 268 61 260 224 230 179 162 164 166 165 171 167 166 168 171 173 177 183 186 182 181 179 184 188
142 193 184 203 182 229 207 193 212 223 233 196 187 164 129 129 91 140 125 221 63 286 248 233 232 185 172 172 169 168 171 175 176 176 179 181 183 176 175 177 176 177 183 179
176 201 214 221 232 246 260 246 263 259 330 161 144 83 101 70 110 153 41 310 238 210 230 238 203 179 171 172 169 173 173 177 180 181 180 184 179 170 168 171 171 168 171 169
197 224 248 234 252 253 247 248 258 269 252 207 204 117 105 204 133 170 218 175 219 249 231 246 179 174 174 174 178 179 178 182 182 186 184 175 171 173 173 165 158 160 167 172
226 239 244 262 281 259 271 255 246 236 192 200 151 153 189 116 129 220 191 209 232 289 303 293 198 182 176 176 176 176 180 183 188 182 171 170 169 172 173 167 162 164 163 162